This is the latest recevied weather packets stored in our database for station/object AD8AK. If no packets are shown the sender has not sent any weather packets the latest 1 day(s).
| Time | Temp. | Humidity | Pressure | Rain* | Wind** | Luminosity | Snow |
|---|---|---|---|---|---|---|---|
| 1778055800 | 6.67° C | 96% | 1009.2 hPa | 0 mm | - | - | - |
| 1778055496 | 6.67° C | 96% | 1009.4 hPa | 0 mm | - | - | - |
| 1778055194 | 6.67° C | 96% | 1009.2 hPa | 0 mm | - | - | - |
| 1778054892 | 6.67° C | 96% | 1009.2 hPa | 0 mm | - | - | - |
| 1778054588 | 6.67° C | 96% | 1009.2 hPa | 0 mm | - | - | - |
| 1778054286 | 6.67° C | 96% | 1009.3 hPa | 0 mm | - | - | - |
| 1778053983 | 6.67° C | 96% | 1008.9 hPa | 0 mm | - | - | - |
| 1778053377 | 6.67° C | 96% | 1008.6 hPa | 0 mm | - | - | - |
| 1778053074 | 6.67° C | 96% | 1008.6 hPa | 0 mm | - | - | - |
| 1778052772 | 6.67° C | 96% | 1008.7 hPa | 1.27 mm | - | - | - |
| 1778052469 | 6.67° C | 96% | 1008.8 hPa | 1.27 mm | - | - | - |
| 1778051864 | 6.67° C | 96% | 1008.4 hPa | 0 mm | - | - | - |
| 1778051258 | 7.22° C | 96% | 1009.4 hPa | 1.78 mm | - | - | - |
| 1778050955 | 6.67° C | 96% | 1009.5 hPa | 0 mm | - | - | - |
| 1778050653 | 7.22° C | 96% | 1009.2 hPa | 1.27 mm | - | - | - |
| 1778050350 | 7.22° C | 96% | 1009.5 hPa | 0 mm | - | - | - |
| 1778049742 | 7.22° C | 96% | 1009.2 hPa | 0 mm | - | - | - |
| 1778049440 | 7.22° C | 96% | 1009.3 hPa | 1.78 mm | - | - | - |
| 1778049137 | 7.22° C | 96% | 1008.8 hPa | 1.78 mm | - | - | - |
| 1778048228 | 7.22° C | 96% | 1008.7 hPa | 1.78 mm | - | - | - |
| 1778047926 | 7.22° C | 96% | 1009.3 hPa | 1.78 mm | - | - | - |
| 1778047321 | 7.78° C | 96% | 1009.3 hPa | 3.05 mm | - | - | - |
| 1778047018 | 7.78° C | 96% | 1009.2 hPa | 1.78 mm | - | - | - |
| 1778046715 | 7.78° C | 96% | 1009.1 hPa | 0 mm | - | - | - |
| 1778046412 | 7.78° C | 96% | 1008.9 hPa | 1.27 mm | - | - | - |
* Rain latest hour (hover to see other rain measurements)
** Current wind speed in m/s (hover to see current wind gust speed)